BIPCOM Weather Reports


Display with metric or nautical units.
time (UTC)temp
F
wind
direction
speed
MPH
gust
MPH
rain 1hr
in
rain 24hr
in
rain mn
in
humidity
%
barometer
mb
20260507223045 53 121 19.0 23.0 0.00 0.00 0.00 82 1014.0
20260507222536 53 116 18.0 23.0 0.00 0.00 0.00 82 1013.9
20260507222025 53 115 19.0 23.0 0.00 0.00 0.00 82 1013.9
20260507221515 54 110 18.0 23.0 0.00 0.00 0.00 82 1013.9
20260507221008 54 113 19.0 23.0 0.00 0.00 0.00 81 1014.0
20260507220559 53 111 19.0 24.0 0.00 0.00 0.00 81 1013.9
20260507220053 53 109 20.0 24.0 0.00 0.00 0.00 81 1014.0
20260507215536 53 116 20.0 24.0 0.00 0.00 0.00 83 1014.1
20260507215026 53 111 20.0 24.0 0.00 0.00 0.00 82 1014.1
20260507214516 53 109 20.0 24.0 0.00 0.00 0.00 82 1014.1
20260507214109 53 113 20.0 25.0 0.00 0.00 0.00 83 1014.1
20260507213547 53 117 21.0 26.0 0.00 0.00 0.00 83 1014.1
20260507213037 53 124 21.0 26.0 0.00 0.00 0.00 83 1014.1
20260507212526 54 129 21.0 27.0 0.00 0.00 0.00 84 1014.1
20260507212017 53 120 23.0 27.0 0.00 0.00 0.00 83 1014.1
20260507211506 53 121 20.0 26.0 0.00 0.00 0.00 84 1014.0
20260507211057 53 122 23.0 27.0 0.00 0.00 0.00 83 1014.0
20260507210550 53 118 23.0 27.0 0.00 0.00 0.00 84 1014.0
20260507210041 53 123 20.0 25.0 0.00 0.00 0.00 85 1013.9
20260507205528 54 119 20.0 25.0 0.00 0.00 0.00 85 1013.9
20260507205017 53 115 22.0 25.0 0.00 0.00 0.00 84 1013.9
20260507204507 54 115 21.0 25.0 0.00 0.00 0.00 84 1013.9
20260507204102 53 120 20.0 25.0 0.00 0.00 0.00 84 1013.9
20260507203538 53 127 18.0 24.0 0.00 0.00 0.00 84 1013.9
20260507203040 53 126 19.0 22.0 0.00 0.00 0.00 84 1013.8
20260507202520 53 131 19.0 21.0 0.00 0.00 0.00 84 1013.7
20260507202007 54 126 17.0 23.0 0.00 0.00 0.00 85 1013.7
20260507201559 53 127 19.0 23.0 0.00 0.00 0.00 84 1013.7
20260507201050 53 131 20.0 23.0 0.00 0.00 0.00 84 1013.6
20260507200542 53 128 20.0 24.0 0.00 0.00 0.00 85 1013.5
20260507200030 53 130 21.0 24.0 0.00 0.00 0.00 86 1013.4
20260507195519 53 134 20.0 24.0 0.00 0.00 0.00 86 1013.3
20260507195009 53 126 19.0 22.0 0.00 0.00 0.00 86 1013.2
20260507194620 53 123 19.0 21.0 0.00 0.00 0.00 86 1013.2
20260507194051 53 128 18.0 23.0 0.00 0.00 0.00 86 1013.2
20260507193529 53 123 18.0 23.0 0.00 0.00 0.00 86 1013.2
20260507193020 53 128 18.0 24.0 0.00 0.00 0.00 86 1013.2
20260507192508 53 125 20.0 23.0 0.00 0.00 0.00 85 1013.1
20260507192100 53 122 19.0 24.0 0.00 0.00 0.00 85 1013.1
20260507191551 53 119 20.0 24.0 0.00 0.00 0.00 85 1013.1
20260507191040 54 119 17.0 21.0 0.00 0.00 0.00 85 1013.2
20260507190530 54 128 17.0 20.0 0.00 0.00 0.00 85 1013.1
20260507190020 54 119 16.0 20.0 0.00 0.00 0.00 85 1013.1
20260507185510 53 127 18.0 20.0 0.00 0.00 0.00 85 1013.2
20260507185101 54 128 16.0 20.0 0.00 0.00 0.00 85 1013.2
20260507184552 53 125 17.0 20.0 0.00 0.00 0.00 85 1013.2
20260507184042 53 126 16.0 18.0 0.00 0.00 0.00 85 1013.2
20260507183520 53 135 16.0 18.0 0.00 0.00 0.00 85 1013.2
20260507183012 54 128 15.0 18.0 0.00 0.00 0.00 85 1013.2
20260507182605 54 125 15.0 18.0 0.00 0.00 0.00 85 1013.1
20260507182052 54 117 14.0 17.0 0.00 0.00 0.00 85 1013.2
20260507181543 54 124 15.0 18.0 0.00 0.00 0.00 85 1013.1
20260507181031 54 136 15.0 18.0 0.00 0.00 0.00 85 1013.1
20260507180522 54 133 14.0 17.0 0.00 0.00 0.00 85 1013.1
20260507180012 54 139 14.0 17.0 0.00 0.00 0.00 85 1013.2
20260507175601 54 129 14.0 16.0 0.00 0.00 0.00 85 1013.1
20260507175051 54 134 13.0 15.0 0.00 0.00 0.00 85 1013.1
20260507174545 54 134 13.0 15.0 0.00 0.00 0.00 84 1013.1
20260507174022 54 128 13.0 15.0 0.00 0.00 0.00 84 1013.1
20260507173510 54 126 11.0 13.0 0.00 0.00 0.00 84 1013.1
20260507173136 54 134 11.0 13.0 0.00 0.00 0.00 85 1013.1
20260507172551 54 123 12.0 13.0 0.00 0.00 0.00 84 1013.1
20260507172041 54 128 11.0 13.0 0.00 0.00 0.00 85 1013.1
20260507171530 54 144 10.0 13.0 0.00 0.00 0.00 84 1013.2
20260507171019 54 136 10.0 14.0 0.00 0.00 0.00 84 1013.3
20260507170510 53 132 11.0 14.0 0.00 0.00 0.00 85 1013.3
20260507170105 54 138 11.0 13.0 0.00 0.00 0.00 85 1013.2
20260507165550 54 125 10.0 13.0 0.00 0.00 0.00 85 1013.2
20260507165040 54 134 11.0 13.0 0.00 0.00 0.00 85 1013.3
20260507164534 54 134 11.0 12.0 0.00 0.00 0.00 85 1013.3
20260507164010 53 133 10.0 12.0 0.00 0.00 0.00 85 1013.3
20260507163603 54 131 10.0 12.0 0.00 0.00 0.00 86 1013.3
20260507163052 53 138 11.0 12.0 0.00 0.00 0.00 85 1013.3
20260507162542 53 130 10.0 12.0 0.00 0.00 0.00 86 1013.2
20260507162031 54 127 10.0 12.0 0.00 0.00 0.00 86 1013.2
20260507161521 54 134 10.0 12.0 0.00 0.00 0.00 85 1013.3
20260507161010 54 126 10.0 12.0 0.00 0.00 0.00 85 1013.3
20260507160603 54 130 10.0 14.0 0.00 0.00 0.00 85 1013.3
20260507160100 54 137 11.0 14.0 0.00 0.00 0.00 85 1013.4
20260507155542 54 144 11.0 13.0 0.00 0.00 0.00 85 1013.4
20260507155032 54 146 11.0 13.0 0.00 0.00 0.00 85 1013.4
20260507154525 54 140 10.0 15.0 0.00 0.00 0.00 86 1013.4
20260507154001 54 142 11.0 15.0 0.00 0.00 0.00 86 1013.4
20260507153552 54 155 10.0 15.0 0.00 0.00 0.00 85 1013.5
20260507153043 54 153 12.0 15.0 0.00 0.00 0.00 85 1013.5
20260507152533 54 155 9.0 15.0 0.00 0.00 0.00 85 1013.6
20260507152031 54 147 10.0 15.0 0.00 0.00 0.00 85 1013.6
20260507151514 54 161 12.0 16.0 0.00 0.00 0.00 85 1013.7
20260507151001 54 150 12.0 15.0 0.00 0.00 0.00 85 1013.7
20260507150554 54 151 9.0 15.0 0.00 0.00 0.00 85 1013.7
20260507150044 54 148 12.0 15.0 0.00 0.00 0.00 85 1013.7
20260507145534 54 148 11.0 16.0 0.00 0.00 0.00 85 1013.7
20260507145027 54 149 13.0 16.0 0.00 0.00 0.00 85 1013.8
20260507144513 54 150 11.0 15.0 0.00 0.00 0.00 84 1013.8
20260507144105 54 150 11.0 15.0 0.00 0.00 0.00 85 1013.8
20260507143542 54 150 12.0 16.0 0.00 0.00 0.00 85 1013.8
20260507143038 54 146 11.0 16.0 0.00 0.00 0.00 85 1013.9
20260507142524 54 152 12.0 15.0 0.00 0.00 0.00 85 1013.9
20260507142022 54 142 12.0 15.0 0.00 0.00 0.00 85 1013.9
20260507141502 54 149 11.0 16.0 0.00 0.00 0.00 85 1014.0
20260507141054 54 146 12.0 17.0 0.00 0.00 0.00 85 1014.1
20260507140544 54 144 13.0 17.0 0.00 0.00 0.00 84 1014.1
20260507140035 54 156 13.0 17.0 0.00 0.00 0.00 84 1014.1
20260507135523 54 158 11.0 17.0 0.00 0.00 0.00 84 1014.1
20260507135013 54 155 12.0 16.0 0.00 0.00 0.00 85 1014.1
20260507134503 54 184 11.0 15.0 0.00 0.00 0.00 84 1014.1
20260507134055 54 154 11.0 15.0 0.00 0.00 0.00 84 1014.1
20260507133534 54 154 11.0 15.0 0.00 0.00 0.00 84 1014.1
20260507133030 54 149 10.0 14.0 0.00 0.00 0.00 84 1014.1
20260507132520 54 159 10.0 15.0 0.00 0.00 0.00 84 1014.1
20260507132003 54 153 12.0 15.0 0.00 0.00 0.00 84 1014.1
20260507131557 54 157 11.0 14.0 0.00 0.00 0.00 84 1014.1
20260507131043 55 167 9.0 14.0 0.00 0.00 0.00 84 1014.1
20260507130536 54 185 9.0 14.0 0.00 0.00 0.00 84 1014.1
20260507130022 55 145 9.0 14.0 0.00 0.00 0.00 84 1014.2
20260507125514 54 160 10.0 14.0 0.00 0.00 0.00 84 1014.3
20260507125004 54 150 10.0 14.0 0.00 0.00 0.00 83 1014.2
20260507124601 54 157 9.0 14.0 0.00 0.00 0.00 83 1014.2
20260507124044 55 175 9.0 15.0 0.00 0.00 0.00 84 1014.2
20260507123526 54 148 10.0 14.0 0.00 0.00 0.00 84 1014.2
20260507123014 54 150 9.0 14.0 0.00 0.00 0.00 84 1014.2
20260507122502 54 154 10.0 14.0 0.00 0.00 0.00 83 1014.3
20260507122054 54 150 9.0 13.0 0.00 0.00 0.00 83 1014.3
20260507121545 54 150 9.0 14.0 0.00 0.00 0.00 83 1014.3
20260507121034 54 205 8.0 11.0 0.00 0.00 0.00 83 1014.4
20260507120524 54 153 8.0 12.0 0.00 0.00 0.00 83 1014.4
20260507120014 54 163 9.0 13.0 0.00 0.00 0.00 83 1014.4
20260507115504 55 145 7.0 11.0 0.00 0.00 0.00 84 1014.5
20260507115055 54 174 7.0 10.0 0.00 0.00 0.00 83 1014.5
20260507114558 54 149 9.0 12.0 0.00 0.00 0.00 83 1014.5
20260507114035 54 160 8.0 13.0 0.00 0.00 0.00 83 1014.5
20260507113513 54 159 8.0 13.0 0.00 0.00 0.00 83 1014.5
20260507113010 54 151 11.0 14.0 0.00 0.00 0.00 82 1014.5
20260507112555 54 159 8.0 15.0 0.00 0.00 0.00 82 1014.5
20260507112050 54 160 10.0 15.0 0.00 0.00 0.00 82 1014.5
20260507111536 54 148 9.0 14.0 0.00 0.00 0.00 82 1014.5
20260507111025 54 148 9.0 14.0 0.00 0.00 0.00 81 1014.6
20260507110515 54 152 10.0 12.0 0.00 0.00 0.00 81 1014.5
20260507110005 54 144 9.0 12.0 0.00 0.00 0.00 81 1014.6
20260507105556 54 146 9.0 14.0 0.00 0.00 0.00 81 1014.6
20260507105049 54 144 11.0 14.0 0.00 0.00 0.00 82 1014.6
20260507104537 54 155 10.0 14.0 0.00 0.00 0.00 81 1014.6
20260507104016 54 156 9.0 15.0 0.00 0.00 0.00 83 1014.6
20260507103505 54 142 11.0 15.0 0.00 0.00 0.00 82 1014.5
20260507103058 54 141 12.0 14.0 0.00 0.00 0.00 82 1014.5
20260507102546 54 153 11.0 14.0 0.00 0.00 0.00 83 1014.5
20260507102036 54 160 12.0 15.0 0.00 0.00 0.00 83 1014.5
20260507101534 54 142 13.0 15.0 0.00 0.00 0.00 83 1014.5
20260507101017 54 139 13.0 15.0 0.00 0.00 0.00 83 1014.4
20260507100506 54 145 13.0 15.0 0.00 0.00 0.00 83 1014.5
20260507100058 54 162 11.0 16.0 0.00 0.00 0.00 83 1014.5
20260507095550 53 148 12.0 17.0 0.00 0.00 0.00 83 1014.5
20260507095038 53 146 13.0 17.0 0.00 0.00 0.00 83 1014.5
20260507094534 53 147 14.0 17.0 0.00 0.00 0.00 83 1014.5
20260507094012 53 140 14.0 16.0 0.00 0.00 0.00 83 1014.4
20260507093558 53 148 13.0 16.0 0.00 0.00 0.00 83 1014.4
20260507093048 53 142 12.0 16.0 0.00 0.00 0.00 83 1014.4
20260507092538 53 139 13.0 15.0 0.00 0.00 0.00 83 1014.4
20260507092028 53 132 13.0 15.0 0.00 0.00 0.00 83 1014.3
20260507091520 53 143 12.0 15.0 0.00 0.00 0.00 83 1014.3
20260507091008 53 148 11.0 16.0 0.00 0.00 0.00 83 1014.3
20260507090600 53 149 12.0 16.0 0.00 0.00 0.00 83 1014.3
20260507090046 53 142 12.0 16.0 0.00 0.00 0.00 82 1014.3
20260507085536 53 153 12.0 15.0 0.00 0.00 0.00 82 1014.4
20260507085026 53 150 11.0 16.0 0.00 0.00 0.00 82 1014.3
20260507084519 53 149 12.0 17.0 0.00 0.00 0.00 82 1014.4
20260507084107 53 136 15.0 17.0 0.00 0.00 0.00 82 1014.3
20260507083546 53 145 11.0 16.0 0.00 0.00 0.00 82 1014.4
20260507083036 53 153 12.0 16.0 0.00 0.00 0.00 82 1014.4
20260507082527 53 148 12.0 16.0 0.00 0.00 0.00 82 1014.4
20260507082016 53 146 11.0 15.0 0.00 0.00 0.00 82 1014.4
20260507081506 53 143 12.0 17.0 0.00 0.00 0.00 82 1014.3
20260507081102 53 143 13.0 17.0 0.00 0.00 0.00 82 1014.3
20260507080548 53 145 13.0 17.0 0.00 0.00 0.00 82 1014.2
20260507080039 53 140 13.0 17.0 0.00 0.00 0.00 82 1014.3
20260507075527 52 142 13.0 17.0 0.00 0.00 0.00 83 1014.3
20260507075017 52 148 13.0 16.0 0.00 0.00 0.00 84 1014.3
20260507074504 52 137 13.0 16.0 0.00 0.00 0.00 85 1014.3
20260507074055 52 120 12.0 15.0 0.00 0.00 0.00 87 1014.3
20260507073535 52 120 13.0 16.0 0.00 0.00 0.00 87 1014.2
20260507073024 52 132 13.0 16.0 0.00 0.00 0.00 87 1014.3
20260507072514 52 128 11.0 13.0 0.00 0.00 0.00 87 1014.3
20260507072004 52 125 9.0 13.0 0.00 0.00 0.00 87 1014.3
20260507071555 52 120 10.0 13.0 0.00 0.00 0.00 87 1014.3
20260507071045 52 117 10.0 13.0 0.00 0.00 0.00 86 1014.3
20260507070535 52 123 11.0 13.0 0.00 0.00 0.00 87 1014.2
20260507070038 52 112 10.0 13.0 0.00 0.00 0.00 86 1014.2
20260507065514 52 114 10.0 13.0 0.00 0.00 0.00 86 1014.2
20260507065006 52 119 10.0 13.0 0.00 0.00 0.00 86 1014.2
20260507064559 52 109 10.0 13.0 0.00 0.00 0.00 86 1014.2
20260507064047 52 112 11.0 13.0 0.00 0.00 0.00 86 1014.1
20260507063526 51 111 10.0 13.0 0.00 0.00 0.00 87 1014.1
20260507063015 51 112 9.0 12.0 0.00 0.00 0.00 87 1014.1
20260507062505 51 101 8.0 10.0 0.00 0.00 0.00 88 1014.0
20260507062057 51 90 8.0 10.0 0.00 0.00 0.00 87 1014.1
20260507061547 50 76 7.0 11.0 0.00 0.00 0.00 88 1014.1
20260507061036 50 82 9.0 11.0 0.00 0.00 0.00 87 1014.0
20260507060526 50 76 7.0 11.0 0.00 0.00 0.00 87 1014.1
20260507060020 50 79 8.0 11.0 0.00 0.00 0.00 86 1014.0
20260507055507 50 67 9.0 12.0 0.00 0.00 0.00 86 1013.9
20260507055101 50 65 9.0 12.0 0.00 0.00 0.00 86 1013.9
20260507054548 50 75 9.0 11.0 0.00 0.00 0.00 86 1013.9
20260507054038 50 72 8.0 11.0 0.00 0.00 0.00 86 1013.8
20260507053517 50 69 8.0 12.0 0.00 0.00 0.00 86 1013.8
20260507053006 50 73 9.0 12.0 0.00 0.00 0.00 86 1013.8
20260507052557 50 64 9.0 12.0 0.00 0.00 0.00 86 1013.7
20260507052047 49 56 10.0 13.0 0.00 0.00 0.00 85 1013.7
20260507051537 49 58 11.0 12.0 0.00 0.00 0.00 85 1013.7
20260507051026 50 60 10.0 13.0 0.00 0.00 0.00 85 1013.7
20260507050516 50 61 9.0 12.0 0.00 0.00 0.00 84 1013.7
20260507050015 50 64 9.0 12.0 0.00 0.00 0.00 84 1013.7
20260507045600 49 60 8.0 13.0 0.00 0.00 0.00 84 1013.7
20260507045048 50 55 10.0 13.0 0.00 0.00 0.00 84 1013.6
20260507044551 50 65 10.0 13.0 0.00 0.00 0.00 84 1013.6
20260507044029 50 60 10.0 13.0 0.00 0.00 0.00 83 1013.6
20260507043505 50 58 10.0 13.0 0.00 0.00 0.00 83 1013.5
20260507043058 50 52 10.0 13.0 0.00 0.00 0.00 84 1013.5
20260507042548 50 58 10.0 13.0 0.00 0.00 0.00 83 1013.5
20260507042037 50 40 11.0 13.0 0.00 0.00 0.00 83 1013.5
20260507041527 50 59 11.0 13.0 0.00 0.00 0.00 83 1013.5
20260507041019 50 53 11.0 13.0 0.00 0.00 0.00 83 1013.5
20260507040507 50 47 11.0 13.0 0.00 0.00 0.00 83 1013.5
20260507040105 50 55 10.0 13.0 0.00 0.00 0.00 82 1013.5
20260507035548 50 52 10.0 13.0 0.00 0.00 0.00 82 1013.5
20260507035038 50 58 10.0 13.0 0.00 0.00 0.00 83 1013.5
20260507034530 50 53 10.0 13.0 0.00 0.00 0.00 83 1013.4
20260507034006 50 44 10.0 13.0 0.00 0.00 0.00 82 1013.4
20260507033558 50 40 10.0 13.0 0.00 0.00 0.00 82 1013.4
20260507033100 50 55 10.0 12.0 0.00 0.00 0.00 82 1013.4
20260507032537 50 43 9.0 11.0 0.00 0.00 0.00 81 1013.4
20260507032038 50 41 9.0 12.0 0.00 0.00 0.00 81 1013.4
20260507031519 50 38 9.0 12.0 0.00 0.00 0.00 81 1013.4
20260507031011 50 35 10.0 12.0 0.00 0.00 0.00 81 1013.4
20260507030559 50 48 9.0 12.0 0.00 0.00 0.00 80 1013.4
20260507030106 50 36 9.0 12.0 0.00 0.00 0.00 80 1013.4
20260507025539 50 49 10.0 12.0 0.00 0.00 0.00 80 1013.3
20260507025028 50 41 10.0 13.0 0.00 0.00 0.00 79 1013.2
20260507024521 50 35 11.0 13.0 0.00 0.00 0.00 79 1013.2
20260507024111 51 46 11.0 13.0 0.00 0.00 0.00 79 1013.2
20260507023549 51 37 10.0 14.0 0.00 0.00 0.00 79 1013.2
20260507023039 51 38 11.0 14.0 0.00 0.00 0.00 79 1013.2
20260507022529 52 58 10.0 14.0 0.00 0.00 0.00 79 1013.2
20260507022019 51 54 11.0 14.0 0.00 0.00 0.00 78 1013.2
20260507021508 52 57 10.0 15.0 0.00 0.00 0.00 78 1013.2
20260507021104 52 57 10.0 15.0 0.00 0.00 0.00 78 1013.2
20260507020551 52 67 12.0 14.0 0.00 0.00 0.00 78 1013.2
20260507020053 52 69 12.0 15.0 0.00 0.00 0.00 77 1013.1
20260507015529 52 63 11.0 15.0 0.00 0.00 0.00 77 1013.1
20260507015021 52 62 12.0 14.0 0.00 0.00 0.00 77 1013.1
20260507014510 52 66 10.0 14.0 0.00 0.00 0.00 77 1013.1
20260507014102 52 59 11.0 14.0 0.00 0.00 0.00 77 1013.1
20260507013543 52 80 12.0 14.0 0.00 0.00 0.00 76 1013.1
20260507013036 52 70 11.0 15.0 0.00 0.00 0.00 77 1013.0
20260507012523 53 69 12.0 14.0 0.00 0.00 0.00 76 1013.0
20260507012011 52 71 12.0 15.0 0.00 0.00 0.00 76 1013.0
20260507011602 53 71 12.0 15.0 0.00 0.00 0.00 76 1013.1
20260507011048 52 64 12.0 16.0 0.00 0.00 0.00 75 1013.1
20260507010537 52 70 13.0 16.0 0.00 0.00 0.00 75 1013.1
20260507010034 52 66 13.0 16.0 0.00 0.00 0.00 75 1013.1
20260507005517 53 68 12.0 16.0 0.00 0.00 0.00 75 1013.1
20260507005010 53 67 14.0 16.0 0.00 0.00 0.00 74 1013.0
20260507004559 53 73 14.0 16.0 0.00 0.00 0.00 74 1013.0
20260507004049 53 71 12.0 16.0 0.00 0.00 0.00 74 1013.0
20260507003527 53 68 12.0 16.0 0.00 0.00 0.00 74 1013.1
20260507003018 53 71 13.0 16.0 0.00 0.00 0.00 74 1013.1
20260507002507 53 69 13.0 16.0 0.00 0.00 0.00 73 1013.1
20260507002059 53 76 13.0 16.0 0.00 0.00 0.00 73 1013.1
20260507001546 53 71 13.0 16.0 0.00 0.00 0.00 74 1013.1
20260507001036 53 82 13.0 16.0 0.00 0.00 0.00 73 1013.1
20260507000526 53 71 11.0 14.0 0.00 0.00 0.00 74 1013.2
20260507000016 53 59 7.0 10.0 0.00 0.00 0.00 74 1013.2
20260506235507 53 54 7.0 10.0 0.00 0.00 0.00 75 1013.2
20260506235058 53 41 7.0 10.0 0.00 0.00 0.00 75 1013.2
20260506234555 53 13 7.0 9.0 0.00 0.00 0.00 75 1013.2
20260506234037 52 21 8.0 9.0 0.00 0.00 0.00 75 1013.1
20260506233516 52 341 5.0 8.0 0.00 0.00 0.00 75 1013.1
20260506233006 52 309 3.0 8.0 0.00 0.00 0.00 75 1013.1
20260506232558 52 313 4.0 8.0 0.00 0.00 0.00 75 1013.1
20260506232048 52 332 4.0 8.0 0.00 0.00 0.00 75 1013.1
20260506231537 52 302 4.0 8.0 0.00 0.00 0.00 75 1013.1
20260506231027 52 323 4.0 8.0 0.00 0.00 0.00 75 1013.2
20260506230517 52 300 4.0 8.0 0.00 0.00 0.00 75 1013.2
20260506230008 52 302 4.0 9.0 0.00 0.00 0.00 75 1013.1
20260506225601 52 309 5.0 9.0 0.00 0.00 0.00 75 1013.1
20260506225049 52 295 6.0 9.0 0.00 0.00 0.00 75 1013.1
20260506224541 52 322 5.0 8.0 0.00 0.00 0.00 75 1013.1
20260506224017 52 298 5.0 8.0 0.00 0.00 0.00 75 1013.0
20260506223507 52 301 6.0 9.0 0.00 0.00 0.00 75 1013.0